Temp
-11 -10 -11 -11 -10 -10 -10 -10 -10 -11 -11 -10 -10 -10 -11 -11 -11 -11 -11 -11 -11 -11 -11 -11 -11 -12 -12 -12 -12 -12 -12 -12 -12 -12 -12 -13 -13 -13 -12 -13 -13 -13 -13 -13
-11 -10 -11 -11 -11 -10 -10 -10 -10 -11 -11 -10 -10 -10 -11 -11 -11 -11 -11 -11 -11 -11 -12 -12 -12 -12 -12 -12 -12 -12 -13 -13 -13 -13 -13 -13 -13 -13 -13 -13 -13 -13 -13 -13
-11 -11 -11 -11 -11 -11 -11 -11 -11 -11 -11 -11 -10 -10 -11 -11 -11 -11 -11 -12 -12 -12 -12 -12 -12 -13 -13 -13 -14 -13 -13 -13 -13 -13 -13 -13 -13 -13 -13 -13 -13 -13 -13 -14
-10 -11 -11 -11 -11 -11 -11 -11 -11 -11 -11 -11 -11 -10 -10 -11 -11 -12 -12 -12 -12 -12 -12 -12 -12 -13 -13 -14 -14 -14 -14 -13 -13 -13 -13 -13 -13 -13 -13 -14 -14 -14 -14 -14
-10 -11 -11 -11 -11 -11 -11 -12 -11 -11 -11 -10 -11 -10 -10 -11 -11 -12 -13 -13 -13 -13 -13 -13 -13 -13 -13 -13 -13 -14 -14 -14 -13 -14 -14 -14 -14 -14 -14 -14 -14 -15 -15 -15
-11 -11 -11 -12 -12 -12 -12 -12 -12 -12 -11 -10 -12 -12 -9 -10 -12 -12 -13 -13 -13 -14 -14 -14 -14 -14 -14 -14 -13 -13 -14 -15 -15 -15 -15 -15 -15 -15 -15 -16 -16 -16 -16 -17
-12 -12 -12 -12 -13 -13 -13 -13 -13 -12 -12 -11 -11 -11 -11 -12 -12 -13 -13 -14 -14 -14 -15 -15 -15 -15 -14 -14 -15 -15 -15 -15 -15 -16 -16 -16 -16 -16 -16 -16 -17 -16 -16 -17
-12 -12 -13 -13 -13 -13 -13 -13 -14 -13 -13 -13 -12 -10 -11 -12 -13 -13 -14 -14 -15 -15 -15 -15 -15 -15 -16 -16 -16 -16 -16 -16 -16 -17 -17 -18 -18 -18 -18 -18 -18 -19 -19 -19
-13 -13 -14 -14 -14 -14 -13 -13 -14 -14 -13 -13 -12 -13 -13 -13 -14 -14 -15 -15 -15 -15 -15 -15 -16 -16 -16 -17 -17 -17 -17 -17 -18 -18 -19 -19 -20 -20 -20 -20 -20 -20 -20 -20
-14 -14 -14 -14 -14 -13 -13 -14 -14 -15 -14 -13 -13 -13 -14 -15 -15 -15 -15 -15 -16 -16 -16 -16 -17 -17 -17 -18 -18 -19 -19 -20 -20 -21 -21 -21 -21 -21 -21 -22 -22 -22 -21 -21
-14 -14 -13 -13 -13 -14 -14 -14 -14 -16 -15 -15 -14 -14 -14 -15 -16 -16 -16 -16 -17 -17 -17 -18 -18 -18 -18 -19 -19 -20 -21 -21 -21 -22 -22 -22 -22 -22 -22 -22 -22 -22 -22 -22
-15 -14 -13 -14 -14 -14 -15 -15 -16 -16 -16 -16 -16 -13 -15 -16 -16 -17 -17 -17 -18 -18 -18 -18 -19 -19 -19 -20 -21 -21 -22 -22 -23 -23 -23 -23 -23 -22 -22 -22 -22 -22 -22 -22
-15 -14 -14 -14 -14 -14 -15 -16 -16 -16 -17 -16 -18 -15 -17 -17 -17 -18 -19 -19 -19 -19 -19 -19 -20 -20 -21 -22 -22 -23 -23 -23 -23 -23 -23 -23 -23 -23 -23 -23 -23 -23 -23 -23
-16 -15 -14 -14 -15 -15 -16 -16 -16 -17 -16 -17 -17 -18 -18 -18 -19 -19 -19 -19 -19 -20 -20 -21 -21 -22 -23 -23 -23 -23 -23 -24 -24 -24 -24 -24 -24 -24 -24 -24 -24 -24 -24 -24
-16 -15 -15 -15 -16 -16 -16 -16 -16 -16 -17 -18 -17 -19 -19 -20 -21 -21 -20 -20 -20 -21 -21 -22 -23 -23 -24 -24 -24 -24 -24 -24 -24 -24 -25 -25 -25 -25 -25 -25 -25 -25 -25 -25
-16 -16 -16 -16 -17 -17 -16 -16 -16 -16 -17 -18 -20 -19 -20 -21 -21 -21 -21 -21 -22 -22 -23 -23 -24 -24 -24 -24 -25 -25 -25 -25 -25 -25 -25 -25 -25 -25 -25 -26 -26 -27 -27 -28
-17 -17 -17 -17 -18 -18 -17 -15 -16 -18 -19 -20 -20 -20 -21 -21 -21 -21 -22 -23 -23 -24 -24 -24 -24 -25 -25 -25 -26 -26 -26 -26 -26 -26 -26 -26 -26 -26 -27 -27 -29 -30 -30 -31
-17 -18 -19 -19 -19 -19 -17 -17 -18 -19 -19 -20 -21 -21 -22 -22 -22 -22 -23 -23 -24 -24 -25 -25 -25 -25 -25 -26 -26 -26 -26 -26 -26 -26 -26 -27 -27 -28 -29 -30 -31 -31 -32 -32
-18 -18 -19 -19 -19 -19 -18 -18 -19 -20 -19 -20 -22 -22 -23 -23 -23 -23 -24 -24 -25 -25 -25 -25 -26 -26 -26 -26 -26 -26 -27 -27 -27 -27 -28 -29 -30 -30 -31 -32 -32 -32 -32 -32
-19 -19 -20 -20 -20 -20 -19 -19 -20 -21 -21 -21 -23 -23 -23 -23 -23 -24 -25 -25 -25 -25 -26 -26 -26 -26 -27 -27 -27 -27 -27 -27 -28 -29 -30 -31 -32 -32 -33 -33 -33 -33 -33 -33
-19 -20 -20 -21 -21 -21 -20 -21 -21 -23 -23 -23 -23 -23 -24 -24 -25 -25 -25 -26 -26 -26 -27 -27 -27 -27 -27 -27 -27 -28 -28 -29 -30 -31 -32 -33 -33 -33 -33 -33 -33 -33 -33 -33
-20 -20 -20 -21 -21 -21 -21 -23 -23 -24 -24 -24 -24 -25 -25 -25 -25 -26 -26 -26 -26 -27 -27 -27 -27 -28 -28 -28 -29 -29 -30 -31 -32 -33 -33 -33 -33 -33 -33 -33 -34 -34 -34 -34
-21 -21 -22 -22 -22 -22 -23 -24 -25 -25 -25 -25 -25 -26 -25 -26 -26 -26 -26 -27 -27 -27 -27 -28 -28 -28 -29 -30 -30 -31 -32 -32 -33 -33 -34 -34 -34 -34 -34 -34 -34 -34 -34 -34
-21 -22 -22 -22 -22 -24 -25 -26 -26 -27 -27 -27 -27 -27 -27 -27 -27 -27 -28 -28 -28 -28 -29 -29 -29 -30 -31 -32 -32 -32 -33 -33 -34 -34 -34 -34 -34 -35 -35 -35 -35 -35 -35 -35
-23 -23 -22 -24 -24 -25 -26 -27 -28 -28 -27 -28 -28 -28 -27 -28 -28 -28 -28 -29 -29 -30 -30 -30 -31 -32 -32 -32 -33 -33 -33 -34 -34 -34 -35 -35 -35 -35 -35 -36 -36 -36 -36 -36
-23 -23 -23 -25 -26 -27 -28 -28 -28 -29 -29 -29 -28 -28 -29 -29 -29 -29 -29 -30 -31 -31 -31 -32 -32 -33 -33 -33 -33 -34 -34 -34 -35 -35 -35 -35 -36 -36 -36 -36 -37 -37 -37 -38
Height
5812 5813 5817 5814 5814 5814 5814 5814 5814 5818 5814 5812 5813 5811 5814 5815 5815 5814 5812 5812 5811 5809 5809 5808 5805 5804 5802 5802 5802 5801 5799 5798 5798 5796 5793 5791 5788 5787 5785 5784 5781 5779 5778 5777
5805 5805 5807 5807 5806 5806 5806 5805 5807 5806 5805 5803 5804 5803 5806 5805 5804 5803 5803 5802 5802 5801 5799 5799 5799 5797 5796 5793 5793 5791 5790 5789 5788 5786 5784 5781 5780 5776 5773 5772 5771 5769 5766 5764
5795 5797 5800 5799 5799 5799 5797 5798 5797 5796 5796 5794 5793 5792 5797 5796 5794 5792 5793 5792 5792 5792 5791 5789 5788 5788 5787 5785 5782 5782 5780 5778 5776 5774 5773 5772 5770 5767 5765 5762 5760 5758 5756 5752
5785 5790 5789 5790 5792 5791 5790 5791 5789 5788 5786 5786 5787 5785 5785 5788 5785 5785 5784 5784 5784 5782 5781 5780 5779 5778 5776 5773 5771 5769 5767 5766 5765 5762 5760 5759 5757 5754 5752 5750 5747 5745 5742 5739
5779 5778 5780 5781 5781 5781 5782 5781 5780 5778 5777 5776 5778 5778 5776 5778 5779 5778 5776 5774 5773 5773 5771 5769 5768 5766 5763 5762 5759 5756 5754 5752 5750 5748 5745 5742 5740 5739 5736 5734 5732 5730 5728 5725
5768 5769 5770 5772 5771 5771 5771 5770 5769 5768 5768 5766 5772 5769 5764 5765 5766 5766 5765 5765 5765 5764 5761 5757 5756 5753 5749 5747 5744 5742 5739 5738 5736 5734 5732 5730 5728 5724 5722 5719 5716 5712 5710 5708
5758 5760 5760 5761 5762 5762 5760 5759 5758 5757 5759 5758 5757 5756 5757 5755 5754 5753 5753 5752 5750 5748 5746 5741 5738 5736 5733 5729 5726 5724 5722 5721 5719 5718 5715 5713 5710 5707 5705 5701 5698 5696 5693 5690
5747 5750 5751 5753 5753 5752 5751 5751 5751 5749 5746 5747 5747 5745 5745 5743 5742 5742 5741 5741 5738 5735 5732 5727 5723 5720 5717 5713 5710 5707 5706 5705 5703 5700 5698 5695 5692 5689 5686 5683 5680 5677 5675 5672
5737 5739 5741 5741 5741 5742 5741 5741 5742 5738 5738 5736 5736 5733 5734 5731 5730 5730 5729 5726 5725 5723 5719 5714 5710 5705 5702 5699 5696 5693 5691 5688 5685 5682 5679 5676 5674 5672 5669 5666 5663 5659 5655 5652
5726 5727 5728 5729 5730 5730 5731 5733 5731 5731 5728 5724 5725 5724 5720 5720 5719 5716 5714 5712 5711 5709 5705 5700 5695 5691 5687 5683 5680 5676 5673 5670 5668 5666 5663 5661 5657 5654 5650 5647 5644 5642 5638 5634
5713 5715 5716 5717 5717 5719 5718 5717 5718 5718 5713 5710 5712 5710 5705 5706 5707 5702 5698 5698 5694 5691 5687 5683 5678 5675 5672 5667 5663 5661 5658 5655 5651 5647 5644 5642 5639 5636 5632 5628 5625 5621 5617 5614
5700 5699 5701 5703 5704 5704 5705 5707 5706 5701 5702 5698 5693 5698 5695 5696 5692 5689 5686 5681 5678 5675 5670 5667 5664 5661 5657 5652 5647 5643 5639 5636 5633 5630 5628 5624 5621 5617 5612 5608 5605 5601 5596 5592
5686 5686 5688 5688 5689 5691 5693 5694 5692 5689 5686 5681 5678 5682 5683 5681 5678 5676 5673 5667 5662 5659 5656 5652 5649 5646 5640 5635 5630 5626 5622 5619 5616 5612 5609 5604 5599 5594 5590 5585 5580 5576 5571 5566
5672 5673 5674 5677 5676 5677 5677 5678 5677 5673 5666 5667 5666 5668 5667 5665 5665 5660 5654 5650 5648 5644 5638 5634 5630 5626 5623 5618 5613 5608 5604 5601 5597 5593 5589 5584 5578 5572 5567 5561 5556 5551 5545 5540
5655 5657 5658 5661 5661 5660 5662 5663 5660 5654 5654 5649 5657 5652 5654 5651 5645 5641 5638 5634 5630 5626 5621 5615 5612 5609 5606 5601 5596 5591 5586 5582 5577 5573 5569 5564 5558 5552 5545 5539 5532 5526 5519 5514
5641 5641 5642 5642 5645 5645 5646 5650 5643 5642 5639 5636 5635 5635 5639 5631 5626 5624 5619 5614 5611 5608 5603 5599 5596 5592 5588 5583 5578 5572 5568 5563 5559 5554 5548 5541 5534 5527 5520 5514 5508 5502 5495 5489
5627 5626 5627 5624 5627 5627 5625 5634 5631 5626 5626 5624 5616 5623 5619 5615 5609 5606 5602 5598 5594 5590 5586 5583 5579 5575 5571 5566 5561 5556 5548 5543 5539 5532 5525 5519 5512 5504 5498 5492 5486 5481 5476 5471
5612 5612 5611 5609 5610 5603 5616 5616 5612 5608 5609 5607 5601 5601 5599 5593 5591 5588 5584 5580 5576 5574 5571 5567 5563 5559 5554 5548 5542 5536 5529 5522 5516 5510 5502 5495 5488 5482 5477 5472 5468 5463 5459 5455
5598 5597 5596 5594 5593 5591 5602 5598 5597 5588 5591 5589 5583 5586 5578 5575 5574 5573 5568 5562 5560 5557 5553 5548 5544 5540 5534 5528 5521 5515 5509 5501 5494 5488 5480 5473 5468 5463 5458 5454 5450 5446 5443 5438
5584 5584 5583 5578 5574 5571 5586 5582 5575 5569 5567 5578 5569 5563 5558 5557 5556 5560 5546 5547 5544 5540 5534 5529 5524 5519 5514 5507 5501 5496 5489 5481 5474 5466 5460 5454 5450 5446 5442 5438 5434 5429 5424 5420
5569 5567 5564 5562 5555 5553 5561 5560 5555 5546 5553 5551 5549 5546 5543 5541 5540 5537 5534 5530 5525 5520 5514 5509 5505 5501 5494 5488 5481 5475 5468 5461 5454 5449 5444 5439 5435 5431 5427 5422 5416 5411 5406 5401
5552 5549 5550 5546 5539 5536 5543 5534 5532 5531 5525 5527 5529 5526 5525 5524 5521 5518 5515 5511 5506 5502 5497 5491 5486 5481 5474 5467 5460 5454 5449 5443 5439 5434 5429 5425 5420 5416 5411 5406 5400 5395 5389 5385
5534 5537 5534 5532 5527 5523 5519 5514 5510 5508 5508 5508 5509 5508 5507 5504 5504 5500 5496 5492 5488 5484 5478 5471 5465 5461 5454 5446 5440 5436 5432 5427 5423 5418 5413 5408 5404 5399 5394 5389 5383 5378 5371 5366
5519 5521 5515 5512 5513 5505 5498 5495 5492 5489 5489 5491 5491 5491 5486 5484 5483 5482 5479 5475 5469 5462 5456 5450 5445 5440 5434 5428 5424 5421 5416 5412 5407 5402 5398 5393 5388 5382 5377 5372 5367 5361 5355 5349
5505 5507 5501 5496 5493 5486 5482 5478 5471 5471 5475 5476 5473 5470 5469 5465 5464 5461 5460 5455 5449 5442 5435 5430 5426 5422 5418 5412 5408 5405 5400 5396 5392 5387 5381 5377 5372 5366 5362 5356 5351 5345 5338 5333
5496 5492 5485 5477 5476 5465 5464 5462 5456 5456 5456 5455 5454 5454 5452 5447 5445 5441 5439 5435 5429 5425 5420 5416 5411 5406 5402 5398 5394 5389 5384 5380 5375 5371 5365 5360 5355 5350 5345 5340 5335 5328 5323 5317
Wind_Speed
34 34 28 33 34 34 33 34 36 32 34 35 34 34 31 28 28 29 31 31 31 30 31 30 31 32 33 35 36 37 38 40 42 42 40 40 39 40 41 42 43 45 47 48
35 34 32 35 37 37 37 40 37 35 34 34 32 32 28 28 32 33 32 31 31 30 30 32 34 35 36 34 37 38 40 41 43 46 48 47 47 45 45 46 47 48 49 50
38 38 35 38 40 41 43 39 35 35 33 34 36 38 29 32 35 35 34 32 33 33 36 36 37 38 38 38 35 38 40 41 43 44 47 49 50 50 50 51 53 54 54 53
43 40 41 40 39 40 39 36 37 35 36 37 39 47 42 36 37 35 34 32 34 37 38 40 41 42 43 39 40 44 48 51 51 51 51 54 55 55 57 57 57 58 59 59
42 41 39 36 35 35 36 37 37 38 40 43 40 41 45 44 37 34 34 34 33 35 37 40 40 45 45 46 52 56 56 56 57 57 58 59 61 62 62 61 62 62 64 65
39 38 36 35 36 37 37 37 39 42 44 46 37 42 43 43 40 38 38 38 39 41 41 42 43 49 55 58 61 62 58 58 58 59 59 59 60 61 62 63 65 65 66 67
39 39 38 38 37 37 38 38 41 45 44 46 44 45 43 45 45 46 45 46 46 48 49 50 53 57 60 63 62 61 61 61 60 59 60 62 64 65 65 66 68 69 70 71
39 39 39 38 37 39 41 42 42 45 46 45 44 50 52 50 50 51 49 47 48 51 54 55 57 59 60 60 60 61 61 62 64 63 63 65 65 67 68 69 70 71 72 74
40 41 38 39 40 42 42 44 41 44 47 49 49 52 52 54 52 50 48 48 49 51 55 57 58 60 62 61 61 62 64 66 66 68 67 66 67 71 73 72 74 75 78 79
44 43 41 40 42 43 44 47 49 48 50 56 56 55 57 54 51 51 53 53 53 57 59 60 63 65 65 65 65 67 68 67 68 67 69 70 72 73 74 72 73 74 75 77
44 44 46 46 46 43 46 51 52 49 53 58 62 64 63 61 56 56 56 55 57 58 60 63 64 65 66 68 70 70 70 70 70 70 70 70 70 72 74 75 77 80 82 84
46 49 50 50 51 52 51 50 52 54 53 56 62 66 64 59 57 56 56 57 59 62 64 66 67 68 70 72 72 72 71 69 69 69 70 72 74 75 77 79 81 82 84 86
50 52 53 56 59 55 54 52 52 54 56 64 61 65 58 58 58 56 56 59 61 65 68 70 70 70 71 71 71 70 70 70 71 72 73 74 77 79 81 83 84 86 87 88
56 57 61 62 61 61 61 61 59 56 62 58 64 57 58 58 55 55 59 62 66 69 71 72 72 72 69 69 69 69 70 71 71 74 75 77 79 81 82 85 86 87 88 88
61 63 63 66 65 63 62 63 63 65 61 64 62 57 54 54 56 60 65 68 71 72 71 71 69 67 66 67 68 69 71 73 75 76 76 78 80 81 83 85 86 88 89 90
67 66 67 67 65 65 68 67 70 67 66 64 57 58 54 56 60 65 69 71 71 69 69 69 68 68 67 68 70 72 73 74 75 76 78 80 82 83 85 86 87 85 81 76
63 61 59 62 60 63 71 72 70 68 64 58 59 57 57 60 66 69 71 70 68 68 67 66 66 66 68 69 71 72 73 75 76 78 80 81 83 84 83 79 74 70 67 65
60 54 52 56 59 71 69 69 73 72 64 59 61 60 62 66 69 71 72 72 69 66 65 65 67 68 69 70 71 73 76 78 79 81 81 82 80 75 71 67 64 61 61 61
55 50 53 67 73 74 68 72 72 69 72 70 66 62 67 69 70 70 69 70 68 67 67 68 69 70 72 73 75 76 78 80 81 80 78 74 70 67 64 61 60 60 61 62
55 56 57 61 67 71 67 71 70 69 72 64 62 66 69 69 70 65 70 68 68 68 68 69 72 73 74 75 77 79 80 80 78 74 68 65 62 61 60 61 61 62 62 62
65 62 61 62 67 70 69 68 67 69 67 62 65 67 67 67 67 68 67 68 67 68 69 72 73 75 77 78 79 79 77 72 66 62 60 59 59 59 60 60 62 62 63 63
67 67 67 66 68 71 66 63 64 64 65 63 63 64 64 65 65 65 66 67 70 71 73 76 76 76 77 77 76 72 65 60 57 57 57 57 57 58 58 59 61 62 64 66
67 66 66 67 67 64 63 62 62 63 63 63 62 63 65 66 65 67 69 71 72 75 78 77 77 76 74 71 66 60 57 56 55 55 55 57 57 58 59 61 63 65 67 67
61 57 63 61 61 59 60 62 62 61 63 63 63 64 67 69 70 71 72 73 76 76 75 74 72 66 63 59 58 56 55 55 54 55 56 57 58 60 62 63 65 65 65 65
53 53 57 51 52 57 58 59 62 64 63 62 64 67 69 71 72 72 73 73 71 69 65 62 59 55 54 56 56 56 56 55 55 56 59 60 61 62 62 62 62 63 63 64
45 46 52 56 54 57 58 60 63 63 63 64 67 67 67 69 71 69 66 61 60 58 56 54 52 53 54 54 54 55 55 56 58 60 60 61 61 62 61 60 59 58 58 58
Wind_Direction
269 271 275 269 277 284 286 285 287 290 281 279 281 282 286 284 286 287 286 289 286 285 287 286 286 287 287 288 288 289 286 286 287 286 282 280 277 277 276 276 272 268 269 270
273 273 273 275 280 282 282 282 286 281 278 280 285 283 289 290 290 286 287 287 286 285 284 286 285 282 283 284 284 284 283 283 282 282 281 281 278 273 272 271 269 269 267 266
270 270 270 275 276 278 279 280 278 279 280 283 289 286 283 287 287 286 288 289 290 289 290 289 291 290 286 285 285 287 287 286 284 284 283 281 280 278 275 271 272 268 265 265
271 271 272 275 274 272 273 275 276 279 282 286 289 293 286 286 285 287 288 291 294 295 294 294 293 289 285 281 286 287 286 284 281 277 275 275 275 274 274 273 269 265 264 264
270 267 267 270 268 269 271 274 276 279 281 287 287 290 290 290 287 286 289 292 291 291 290 288 287 290 282 280 284 287 286 282 278 274 273 269 267 268 269 270 272 271 268 265
266 264 263 264 262 266 269 269 273 279 284 285 289 285 293 296 293 293 294 294 291 290 286 281 281 283 284 285 284 285 285 282 279 277 276 273 273 271 270 271 271 270 270 270
264 263 261 261 263 264 264 267 272 275 280 283 283 284 288 287 291 293 294 294 294 292 290 291 288 286 286 287 287 286 285 284 282 278 274 275 274 273 272 271 270 271 271 270
257 259 263 267 266 266 270 273 275 279 277 278 279 286 290 290 290 292 291 292 289 289 289 290 289 288 288 287 286 284 283 282 281 277 274 273 272 271 271 271 271 273 273 274
258 260 263 266 269 272 276 276 273 271 274 277 280 281 286 286 288 291 291 288 288 287 286 285 285 284 283 283 282 282 281 278 277 278 277 276 273 269 275 275 276 275 275 276
260 262 264 267 271 273 279 277 273 272 276 277 281 288 285 286 291 292 291 289 288 285 284 284 283 283 284 285 284 282 281 280 278 275 273 273 275 275 277 279 279 281 282 283
258 260 265 267 269 270 269 273 271 272 274 281 286 288 289 292 292 291 290 289 286 283 283 281 281 283 283 282 281 281 281 280 279 278 280 281 283 286 287 287 287 287 287 286
261 263 266 269 269 267 268 271 270 273 279 281 279 287 288 291 290 288 288 287 285 283 282 282 283 284 283 283 284 284 283 284 284 285 285 286 286 286 286 287 287 287 286 286
263 267 269 270 270 272 272 270 270 274 276 277 275 287 289 287 288 288 286 285 284 282 283 282 283 284 283 283 282 283 283 284 285 286 287 287 287 288 289 289 289 288 287 286
262 266 270 273 272 272 272 273 274 276 275 280 281 287 291 289 288 286 286 285 284 283 283 284 284 283 283 284 284 285 286 286 286 287 288 289 290 290 290 289 288 288 287 286
259 265 269 272 268 270 273 275 277 277 280 280 288 290 289 287 284 285 283 281 281 281 283 283 284 285 285 285 286 286 286 287 288 290 290 289 288 289 290 290 290 290 290 289
260 263 265 268 271 271 272 275 275 280 283 286 288 285 289 284 283 283 282 282 283 284 284 285 285 286 286 286 286 287 288 288 288 289 290 292 292 292 292 291 291 291 291 290
259 262 266 271 273 270 272 278 281 280 281 285 284 290 284 283 281 280 281 282 283 284 284 285 285 284 284 285 286 287 287 289 291 292 292 292 292 292 292 291 291 291 290 290
261 265 274 278 276 267 281 282 281 282 283 285 284 284 285 282 280 281 283 284 284 285 284 283 282 283 284 285 287 289 291 292 293 293 293 293 293 292 291 291 291 291 290 290
265 273 269 265 268 273 275 281 285 283 283 286 284 282 279 278 279 282 283 281 283 284 284 284 285 286 288 289 290 292 293 294 294 293 293 292 291 291 292 293 292 291 291 291
256 266 272 272 271 272 281 281 281 280 281 284 281 278 278 279 280 282 280 283 284 284 285 286 287 289 290 291 292 293 293 293 293 292 290 290 291 291 291 292 292 293 293 293
256 263 268 274 277 279 285 287 287 281 288 280 280 280 279 279 280 280 281 283 283 286 287 289 290 290 291 292 293 293 292 291 290 290 289 289 290 291 292 293 293 293 294 295
263 268 273 279 282 283 287 282 280 281 279 279 278 279 280 281 281 282 283 285 287 287 288 290 291 292 293 293 292 290 289 288 288 288 288 289 290 291 291 292 293 294 295 296
268 274 277 279 283 286 285 282 279 277 278 279 280 281 281 282 284 285 287 288 289 291 291 291 293 294 292 289 288 289 289 289 289 290 291 291 292 293 293 294 295 296 297 297
275 281 283 285 287 283 279 278 279 279 277 280 283 284 284 287 288 288 290 292 292 292 292 292 293 290 288 287 287 288 288 288 289 289 289 290 293 294 295 295 296 297 297 297
284 291 293 284 280 276 273 274 275 278 281 283 284 286 288 290 292 293 293 292 293 294 294 291 290 289 288 287 288 288 289 290 290 290 293 294 294 295 295 296 296 296 297 298
293 288 279 273 271 273 275 277 280 282 284 286 288 290 290 290 291 291 293 296 296 294 291 291 290 288 288 289 289 290 291 292 293 293 293 293 294 295 296 296 297 297 297 298